Valentine, NE

8:08 AM CDT on September 24, 2017 (GMT -0500)
Miller Field

Weather History for KVTN - April, 2014

Change the Weather History Date:

Saturday, April 5, 2014

  Actual Average Record
Temperature  
Mean Temperature 54 °F 43 °F  
Max Temperature 69 °F 56 °F 85 °F (1991)
Min Temperature 38 °F 29 °F 7 °F (1968)
Degree Days  
Heating Degree Days 11 22  
Month to date heating degree days 141 115  
Since 1 July heating degree days 6588 6244  
Cooling Degree Days 0 0  
Month to date cooling degree days 0 0  
Year to date cooling degree days 0 0  
Growing Degree Days 2 (Base 50)    
Moisture  
Dew Point 23 °F    
Average Humidity 36    
Maximum Humidity 59    
Minimum Humidity 13    
Precipitation  
Precipitation 0.00 in 0.05 in 0.52 in (1997)
Month to date precipitation 0.03 0.26  
Year to date precipitation 1.18 2.07  
Snow  
Snow 0.00 in 0.10 in 2.00 in (1926)
Month to date snowfall 0.3 0.9  
Since 1 July snowfall 31.8 29.5  
Snow Depth 0.00 in    
Sea Level Pressure  
Sea Level Pressure 29.86 in    
Wind  
Wind Speed 13 mph (SW)    
Max Wind Speed 28 mph    
Max Gust Speed 35 mph    
Visibility 10 miles    
Events      
T = Trace of Precipitation, MM = Missing Value Source: NWS Daily Summary

Daily Weather History Graph

Daily Weather History Graph

Search for Another Location

Airport or City:

Trip Planner

Search our weather history database for the weather conditions in past years. The results will help you decide how hot, cold, wet, or windy it might be!

Date:

Astronomy

Apr. 05, 2014 Rise Set
Actual Time 7:17 AM CDT 8:13 PM CDT
Civil Twilight 6:48 AM CDT 8:41 PM CDT
Nautical Twilight 6:14 AM CDT 9:16 PM CDT
Astronomical Twilight 5:38 AM CDT 9:52 PM CDT
Moon 11:21 AM CDT (4/5) 1:29 AM CDT (4/5)
Length of Visible Light 13h 53m
Length of Day
12h 55m
Waxing Crescent, 34% of the Moon is Illuminated
Apr 5
Waxing Crescent
Apr 7
First Quarter
Apr 15
Full
Apr 22
Last Quarter
Apr 29
New

Hourly Weather History & Observations

Time (CDT) Temp. Windchill Dew Point Humidity Pressure Visibility Wind Dir Wind Speed Gust Speed Precip Events Conditions
12:52 AM 41.0 °F 33.9 °F 17.1 °F 38% 29.99 in 10.0 mi South 12.7 mph - N/A   Overcast
1:52 AM 41.0 °F 35.8 °F 19.0 °F 41% 29.97 in 10.0 mi South 8.1 mph - N/A   Mostly Cloudy
2:52 AM 43.0 °F 34.5 °F 24.1 °F 47% 29.94 in 10.0 mi SSW 19.6 mph 28.8 mph N/A   Mostly Cloudy
3:52 AM 42.1 °F 34.5 °F 25.0 °F 51% 29.92 in 10.0 mi SSW 15.0 mph 25.3 mph N/A   Mostly Cloudy
4:52 AM 41.0 °F 32.2 °F 25.0 °F 53% 29.90 in 10.0 mi SSW 18.4 mph - N/A   Clear
5:52 AM 41.0 °F 31.6 °F 25.0 °F 53% 29.88 in 10.0 mi SSW 20.7 mph - N/A   Mostly Cloudy
6:52 AM 39.9 °F 30.5 °F 26.1 °F 58% 29.87 in 10.0 mi SSW 19.6 mph - N/A   Partly Cloudy
7:52 AM 43.0 °F 34.0 °F 26.1 °F 51% 29.87 in 10.0 mi SSW 21.9 mph 29.9 mph N/A   Clear
8:52 AM 46.9 °F - 26.1 °F 44% 29.88 in 10.0 mi SSW 23.0 mph 31.1 mph N/A   Clear
9:52 AM 50.0 °F - 26.1 °F 39% 29.87 in 10.0 mi SSW 24.2 mph 32.2 mph N/A   Clear
10:52 AM 55.0 °F - 27.0 °F 34% 29.87 in 10.0 mi SSW 15.0 mph - N/A   Clear
11:52 AM 57.9 °F - 27.0 °F 31% 29.85 in 10.0 mi SW 15.0 mph - N/A   Clear
12:52 PM 62.1 °F - 26.1 °F 25% 29.83 in 10.0 mi WSW 8.1 mph - N/A   Clear
1:52 PM 64.9 °F - 24.1 °F 21% 29.80 in 10.0 mi WSW 8.1 mph 19.6 mph N/A   Clear
2:52 PM 66.9 °F - 21.0 °F 17% 29.78 in 10.0 mi WSW 11.5 mph - N/A   Clear
3:52 PM 69.1 °F - 17.1 °F 14% 29.76 in 10.0 mi Variable 3.5 mph - N/A   Clear
4:52 PM 68.0 °F - 15.1 °F 13% 29.75 in 10.0 mi WSW 9.2 mph - N/A   Mostly Cloudy
5:52 PM 64.9 °F - 17.1 °F 16% 29.76 in 10.0 mi NW 8.1 mph - N/A   Mostly Cloudy
6:52 PM 64.0 °F - 19.0 °F 18% 29.79 in 10.0 mi North 11.5 mph - N/A   Overcast
7:52 PM 61.0 °F - 19.9 °F 21% 29.81 in 10.0 mi North 13.8 mph - N/A   Overcast
8:52 PM 53.1 °F - 25.0 °F 34% 29.84 in 10.0 mi ENE 10.4 mph - N/A   Clear
9:52 PM 52.0 °F - 28.0 °F 40% 29.87 in 10.0 mi NNE 6.9 mph - N/A   Overcast
10:52 PM 50.0 °F - 30.0 °F 46% 29.87 in 10.0 mi NNE 5.8 mph - N/A   Mostly Cloudy
11:52 PM 46.9 °F - 30.0 °F 52% 29.86 in 10.0 mi NE 4.6 mph - N/A   Scattered Clouds